TimeEST,TemperatureF,Dew PointF,Humidity,Sea Level PressureIn,VisibilityMPH,Wind Direction,Wind SpeedMPH,Gust SpeedMPH,PrecipitationIn,Events,Conditions,WindDirDegrees,DateUTC
12:54 AM,19.0,7.0,59,30.07,9.0,West,12.7,19.6,0.00,Snow,Light Snow,260,2013-01-21 05:54:00
1:54 AM,19.0,7.0,59,30.08,9.0,West,16.1,-,0.00,Snow,Light Snow,270,2013-01-21 06:54:00
2:54 AM,18.0,6.1,60,30.07,10.0,West,11.5,19.6,0.00,,Partly Cloudy,260,2013-01-21 07:54:00
3:54 AM,17.1,6.1,62,30.06,10.0,WSW,6.9,-,N/A,,Overcast,250,2013-01-21 08:54:00
4:54 AM,18.0,6.1,60,30.05,10.0,WSW,10.4,-,N/A,,Overcast,250,2013-01-21 09:54:00
5:54 AM,19.0,7.0,59,30.04,10.0,WSW,11.5,-,N/A,,Overcast,250,2013-01-21 10:54:00
6:54 AM,19.0,7.0,59,30.04,10.0,WSW,5.8,-,N/A,,Overcast,250,2013-01-21 11:54:00
7:54 AM,19.0,7.0,59,30.03,10.0,WSW,6.9,-,0.00,Snow,Light Snow,250,2013-01-21 12:54:00
8:54 AM,19.0,8.1,62,30.02,10.0,SW,9.2,-,0.00,,Overcast,220,2013-01-21 13:54:00
9:54 AM,19.0,8.1,62,30.02,10.0,SW,8.1,-,N/A,,Overcast,230,2013-01-21 14:54:00
10:54 AM,19.9,9.0,62,30.00,10.0,SW,6.9,-,N/A,,Overcast,230,2013-01-21 15:54:00
11:54 AM,21.0,10.0,63,29.96,10.0,Calm,Calm,-,N/A,,Overcast,0,2013-01-21 16:54:00
12:54 PM,21.0,12.0,68,29.92,8.0,WSW,5.8,-,0.00,Snow,Light Snow,240,2013-01-21 17:54:00
1:54 PM,21.0,12.9,71,29.90,8.0,SW,8.1,-,0.00,Snow,Light Snow,230,2013-01-21 18:54:00
1:59 PM,21.2,14.0,74,29.86,1.5,WSW,9.2,-,0.00,Snow,Light Snow,250,2013-01-21 18:59:00
2:11 PM,19.4,15.8,86,29.86,7.0,West,5.8,-,0.00,Snow,Light Snow,270,2013-01-21 19:11:00
2:54 PM,21.0,9.0,60,29.88,10.0,West,9.2,-,0.00,,Overcast,270,2013-01-21 19:54:00
3:54 PM,21.0,9.0,60,29.89,10.0,West,8.1,-,N/A,,Overcast,280,2013-01-21 20:54:00
4:54 PM,19.9,7.0,57,29.89,10.0,West,9.2,-,N/A,,Mostly Cloudy,280,2013-01-21 21:54:00
5:54 PM,19.4,8.6,63,29.88,10.0,WSW,9.2,-,N/A,,Mostly Cloudy,250,2013-01-21 22:54:00
6:54 PM,19.0,9.0,65,29.91,10.0,WSW,9.2,-,N/A,,Mostly Cloudy,240,2013-01-21 23:54:00
7:54 PM,18.0,9.0,68,29.91,10.0,WSW,6.9,-,N/A,,Scattered Clouds,250,2013-01-22 00:54:00
8:54 PM,17.1,10.9,77,29.91,10.0,West,9.2,-,N/A,,Scattered Clouds,270,2013-01-22 01:54:00
9:54 PM,17.1,8.1,68,29.91,10.0,WNW,13.8,25.3,N/A,,Scattered Clouds,290,2013-01-22 02:54:00
10:38 PM,15.8,6.8,68,29.89,10.0,WNW,13.8,18.4,N/A,,Mostly Cloudy,290,2013-01-22 03:38:00
10:54 PM,15.1,6.1,68,29.92,10.0,West,8.1,-,N/A,,Scattered Clouds,280,2013-01-22 03:54:00
11:09 PM,15.8,6.8,68,29.89,10.0,West,9.2,-,N/A,,Mostly Cloudy,280,2013-01-22 04:09:00
11:30 PM,14.0,5.0,67,29.89,10.0,West,9.2,-,0.00,,Mostly Cloudy,270,2013-01-22 04:30:00
11:54 PM,14.0,1.0,56,29.92,10.0,West,16.1,21.9,0.00,,Partly Cloudy,270,2013-01-22 04:54:00